Погода в Котону

Бенин     6°22′23″N   2°22′37″E
темп.,
°C
ветер,
м/с
пор.,
м/с
влажн.,
%
обл.,
%
осадки,
мм/ч
давл.,
гПа
погр.,
м
11 апреля, вс
вс1101:00+28ююз678211 0.0 1007449
04:00+28юз67815 0.0 1007628
07:00+28юз668194 0.0 1007617
10:00+28ююз55815 0.0 1010635
13:00+29юз55798 0.0 1009790
16:00+28зюз44805 0.1 1007365
19:00+28ююз9108499 0.1 1007591
22:00+28ююв3381100 3.1 1012212
12 апреля, пн
пн1201:00+28ю8984100 4.8 1010680
04:00+28юз8983100 0.0 1008713
07:00+28юз6782100 0.1 1010716
10:00+28юз568284 0.1 1012577
13:00+28юз5681100 0.1 1011623
16:00+29юз447918 0.0 1009670
19:00+28ю8883100 0.0 1009604
22:00+28зюз2383100 1.0 1013224
13 апреля, вт
вт1301:00+28ююз5682100 1.3 1011434
04:00+28юз788299 0.0 1008507
07:00+28зюз7781100 0.0 1010601
10:00+28юз5581100 0.0 1012599
13:00+28юз5581100 0.0 1011602
16:00+29юз5580100 0.1 1010563
19:00+28ююз7784100 0.1 1010584
22:00+28ююз7884100 0.0 1011598
14 апреля, ср
ср1401:00+28ююз678248 0.0 1011698
04:00+28юз78827 0.0 1009716
07:00+28юз568029 0.1 1010722
10:00+28юз458114 0.0 1012527
13:00+28зюз5581100 0.1 1011396
16:00+28зюз668158 0.1 1009424
19:00+28ююз10118599 0.1 1008597
22:00+28ююз3381100 1.4 1012442
15 апреля, чт
чт1501:00+28ю7780100 2.3 1011567
04:00+28юз6780100 0.0 1008654
07:00+28юз91083100 0.0 1009779
10:00+28юз558199 0.3 1012523
13:00+28юз558150 0.3 1010494
16:00+28ююз7779100 0.0 1008563
19:00+28ююз788255 0.0 1008436
22:00+28ююз578442 0.0 1010527